Regional Weather Roundup
Issued by NWS Burlington, VT

Home | Current Version | Previous Version | Text Only | Print | Product List | Glossary On
Versions: 1 2 3 4 5 6 7 8 9 10 11 12 13 14 15 16 17 18 19 20 21 22 23 24 25 26 27 28 29 30 31 32 33 34 35 36 37 38 39 40 41 42 43 44 45 46 47 48 49 50
000
ASUS41 KBTV 180930
RWRBTV
VERMONT REGIONAL WEATHER ROUNDUP
NATIONAL WEATHER SERVICE BURLINGTON VT
500 AM EDT WED OCT 18 2017

NOTE: "FAIR" INDICATES FEW OR NO CLOUDS BELOW 12,000 FEET WITH NO
SIGNIFICANT WEATHER AND/OR OBSTRUCTIONS TO VISIBILITY.

* THESE REPORTS ARE NOT UNDER NWS QUALITY CONTROL AND/OR DO NOT
  REPORT WEATHER SUCH AS PRECIPITATION AND FOG.

VTZ001>019-181000-
_____VERMONT_____


CITY           SKY/WX    TMP DP  RH WIND       PRES   REMARKS
BURLINGTON     CLEAR     51  36  56 S13       30.13R
MONTPELIER     MOCLDY    52  40  63 W5        30.16R
MORRISVILLE    CLOUDY    53  39  59 SW8       30.12R
ST. JOHNSBURY*   N/A     44  34  67 MISG      30.12R
LYNDONVILLE*   FAIR      41  31  67 CALM      30.15R
MIDDLEBURY*    FAIR      45  37  74 CALM      30.17R
RUTLAND*       CLEAR     44  35  70 SE5       30.19R
SPRINGFIELD    CLEAR     33  29  85 CALM      30.19S
HIGHGATE*      CLOUDY    51  39  65 S6        30.13R
NEWPORT*       CLOUDY    49  39  68 S3        30.12R
BENNINGTON     CLEAR     34  31  88 S3        30.21R
SUTTON*          N/A     41 N/A N/A MISG        N/A
ISLAND POND*     N/A     46 N/A N/A NW1         N/A
GALLUP MILLS*    N/A     36 N/A N/A MISG        N/A
UNION VILLAGE*   N/A     32 N/A N/A MISG        N/A
MT. MANSFIELD*   N/A     41 N/A N/A W31         N/A  WCI  30

_____LAKE CHAMPLAIN_____


CITY           SKY/WX    TMP DP  RH WIND       PRES   REMARKS
BURTON ISLAND*   N/A     54  43  66 S15         N/A
COLCHESTER RF*   N/A     54  45  71 S22         N/A
DIAMOND ISL*     N/A     50  37  62 SE2         N/A

$$

NYZ007-026>031-035-052-083-087-181000-
_____NORTHERN NEW YORK_____


CITY           SKY/WX    TMP DP  RH WIND       PRES   REMARKS
PLATTSBURGH    CLEAR     56  44  64 SW6       30.11R
SARANAC LAKE   PTCLDY    49  43  80 SW9       30.14R
MASSENA        CLEAR     52  49  89 SW9       30.13R
OGDENSBURG*    FAIR      49  47  90 CALM      30.15R
POTSDAM*       CLEAR     50  50 100 SW7       30.16R
STARK FALLS*     N/A     50 N/A N/A SW6         N/A
WATERTOWN      CLEAR     51  46  83 S6        30.17R
FT DRUM        CLEAR     53  47  79 SW9       30.16R
ALBANY         CLEAR     42  34  73 S3        30.23R
GLENS FALLS    CLEAR     35  33  92 NE3       30.19S

$$
NHZ002-005-011-181000-
_____NEW HAMPSHIRE_____


CITY           SKY/WX    TMP DP  RH WIND       PRES   REMARKS
LEBANON        CLEAR     36  32  85 S3        30.16R
KEENE          CLEAR     31  31 100 CALM      30.21S
MT WASHINGTON  FOG       28  28 100 W56         N/A  VSB 0   WCI   8
PLYMOUTH       FAIR      29  29 100 CALM      30.16R
WHITEFIELD     MOCLDY    39  36  89 CALM      30.13R

$$

_____REGIONAL QUEBEC LOCATIONS_____


CITY           SKY/WX    TMP DP  RH WIND       PRES   REMARKS
MONTREAL       CLEAR     50  46  87 SW9       30.10R
QUEBEC CITY    PTCLDY    43  41  93 SW10      30.00R
SHERBROOKE     CLOUDY    50  39  66 SW7       30.07R

_____REGIONAL ONTARIO LOCATIONS_____


CITY           SKY/WX    TMP DP  RH WIND       PRES   REMARKS
OTTAWA         CLEAR     48  45  87 W3        30.12R

______KEY______
VSB  - VISIBILITY IN MILES
WCI  - WIND CHILL INDEX
HX   - HEAT INDEX
$$
NNNN



USA.gov is the U.S. government's official web portal to all federal, state and local government web resources and services.